Regional Weather Roundup
Issued by NWS

Home | Current Version | Previous Version | Graphics & Text | Print | Product List | Glossary On
Versions: 1 2 3 4 5 6 7 8 9 10 11 12 13 14 15 16 17 18 19 20 21 22 23 24 25 26 27 28 29 30 31 32 33 34 35 36 37 38 39 40 41 42 43 44 45 46 47 48 49 50
000
ASUS43 KIND 231800
RWRIN

WEATHER ROUNDUP FOR INDIANA
NATIONAL WEATHER SERVICE INDIANAPOLIS IN
200 PM EDT TUE MAY 23 2017

NOTE: "FAIR" INDICATES FEW OR NO CLOUDS BELOW 12,000 FEET WITH NO
SIGNIFICANT WEATHER AND/OR OBSTRUCTIONS TO VISIBILITY.

* - STATION DOES NOT REPORT WEATHER SUCH AS PRECIPITATION OR FOG.

+ - STATION NOT QUALITY CONTROLLED BY THE NATIONAL WEATHER SERVICE.
    USE DATA WITH CAUTION...ESPECIALLY DEWPOINT AND RELATIVE
    HUMIDITY OBSERVATIONS.

INZ001>003-010>013-019-020-231900-
NORTHWEST INDIANA

CITY           SKY/WX    TMP DP  RH WIND       PRES   REMARKS
GARY /AIRPORT/ CLOUDY    64  52  63 CALM      29.78F
MICHIGAN CITY+ LGT RAIN  63  54  72 CALM      29.79F
MONTICELLO +   PTSUNNY   68  50  52 S3        29.76F
6HR MIN TEMP:  58; 6HR MAX TEMP:  69;

RENSSELAER +   CLOUDY    64  52  63 N3        29.78F

$$

LMZ046-743>745-231900-
SOUTHERN LAKE MICHIGAN

STATION/POSITION TIME  TEMP    WIND        PRES    WAVE
                       AIR SEA DIR/SP/G            HT
                 (UTC) (F)     (DEG/KT/KT) (MB)    (FT)
BURNS HARBOR     1740   59      50/  7/  7 1009.1F
MICHIGAN CITY    1730   58      30/  4/  4   N/A
5NW MICH CITY    1750   56 53   90/  4/  6   N/A     0

$$

INZ004-005-014>016-021>024-231900-
NORTH CENTRAL INDIANA

CITY           SKY/WX    TMP DP  RH WIND       PRES   REMARKS
ELKHART        CLOUDY    66  50  55 CALM      29.79F
GOSHEN         MOSUNNY   69  49  48 N8        29.77F
6HR MIN TEMP:  60; 6HR MAX TEMP:  70; 6HR PCP: TRACE;

SOUTH BEND     CLOUDY    62  56  80 NE7       29.79F
6HR MIN TEMP:  58; 6HR MAX TEMP:  66; 6HR PCP:  0.01;


$$

INZ006>009-017-018-025>027-231900-
NORTHEAST INDIANA

CITY           SKY/WX    TMP DP  RH WIND       PRES   REMARKS
ANGOLA *+      MOSUNNY   72  48  43 S7        29.78F
FORT WAYNE     LGT RAIN  69  48  47 E5        29.77F
6HR MIN TEMP:  59; 6HR MAX TEMP:  70; 6HR PCP: TRACE;

KENDALLVILLE + CLOUDY    69  48  46 S6        29.79F

$$

INZ028-029-035-036-043>045-051>053-231900-
WEST CENTRAL INDIANA

CITY           SKY/WX    TMP DP  RH WIND       PRES   REMARKS
CRAWFORDSVL +  SUNNY     66  50  57 NW3       29.76F
6HR MIN TEMP:  55; 6HR MAX TEMP:  67;

GREENCASTLE +  SUNNY     68  46  45 E6        29.75F
LAFAYETTE      MOSUNNY   69  52  54 SE7       29.74F
6HR MIN TEMP:  58; 6HR MAX TEMP:  70;

TERRE HAUTE    CLOUDY    71  45  39 CALM      29.75F
6HR MIN TEMP:  59; 6HR MAX TEMP:  71;


$$

INZ030>032-037>040-046>048-054>057-064-065-231900-
CENTRAL INDIANA

CITY           SKY/WX    TMP DP  RH WIND       PRES   REMARKS
COLUMBUS       SUNNY     68  45  42 E7        29.76F
INDIANAPOLIS   PTSUNNY   70  48  45 SE8       29.74F
6HR MIN TEMP:  58; 6HR MAX TEMP:  71;

-EAGLE CREEK   SUNNY     72  48  42 MISG      29.74F
6HR MIN TEMP:  60; 6HR MAX TEMP:  72;

KOKOMO +       MOSUNNY   70  50  49 VRB6      29.77F
6HR MIN TEMP:  58; 6HR MAX TEMP:  70;

SHELBYVILLE    CLOUDY    73  45  36 SE7       29.74F
6HR MIN TEMP:  60; 6HR MAX TEMP:  73;


$$

INZ033-034-041-042-049-050-058-059-231900-
EAST CENTRAL INDIANA

CITY           SKY/WX    TMP DP  RH WIND       PRES   REMARKS
MUNCIE         SUNNY     73  45  36 E9        29.76F
6HR MIN TEMP:  60; 6HR MAX TEMP:  73;

RICHMOND +     MOSUNNY   70  46  43 E7        29.78F

$$

INZ060-061-067>069-081>083-085>088-231900-
SOUTHWEST INDIANA

CITY           SKY/WX    TMP DP  RH WIND       PRES   REMARKS
EVANSVILLE     MOSUNNY   77  48  35 NW5       29.73F
6HR MIN TEMP:  60; 6HR MAX TEMP:  78;

HUNTINGBURG *+ CLOUDY    70  52  52 CALM      29.74
6HR MIN TEMP:  57; 6HR MAX TEMP:  71;


$$

INZ062-063-066-070>080-084-089>092-231900-
SOUTH CENTRAL AND SOUTHEAST INDIANA

CITY           SKY/WX    TMP DP  RH WIND       PRES   REMARKS
BLOOMINGTON    SUNNY     71  49  45 SE7       29.74F
6HR MIN TEMP:  57; 6HR MAX TEMP:  71;

MADISON *+     MOSUNNY   73  46  38 E6        29.76F
SEYMOUR +      PTSUNNY   72  50  46 CALM      29.74F

$$





USA.gov is the U.S. government's official web portal to all federal, state and local government web resources and services.